Rexburg, ID

10:44 PM MST on February 21, 2018 (GMT -0700)
Rexburg-Madison County

Weather History for KRXE - June, 2013

Change the Weather History Date:

Tuesday, June 18, 2013

  Actual Average Record
Temperature  
Mean Temperature 67 °F 60 °F  
Max Temperature 87 °F 75 °F 89 °F (2015)
Min Temperature 47 °F 46 °F 31 °F (2010)
Degree Days  
Heating Degree Days 0 5  
Month to date heating degree days 72 124  
Since 1 June heating degree days 72 124  
Since 1 July heating degree days 7756 8082  
Cooling Degree Days 2 1  
Month to date cooling degree days 20 6  
Year to date cooling degree days 22 10  
Since 1 June cooling degree days 20 6  
Growing Degree Days 16 (Base 50)    
Moisture  
Dew Point 40 °F    
Average Humidity 44    
Maximum Humidity 74    
Minimum Humidity 14    
Precipitation  
Precipitation 0.00 in 0.05 in 0.25 in (1984)
Month to date precipitation 0.19 1.03  
Year to date precipitation 4.44 6.90  
Sea Level Pressure  
Sea Level Pressure 29.73 in    
Wind  
Wind Speed 6 mph (NNE)    
Max Wind Speed 17 mph    
Max Gust Speed 26 mph    
Visibility 10 miles    
Events      
T = Trace of Precipitation, MM = Missing Value Source: NWS Daily Summary

Daily Weather History Graph

Daily Weather History Graph

Search for Another Location

Airport or City:

Trip Planner

Search our weather history database for the weather conditions in past years. The results will help you decide how hot, cold, wet, or windy it might be!

Date:

Astronomy

Jun. 18, 2013 Rise Set
Actual Time 5:44 AM MDT 9:12 PM MDT
Civil Twilight 5:08 AM MDT 9:48 PM MDT
Nautical Twilight 4:20 AM MDT 10:36 PM MDT
Astronomical Twilight 3:20 AM MDT 11:36 PM MDT
Moon 3:53 PM MDT (6/18) 2:03 AM MDT (6/18)
Length of Visible Light 16h 40m
Length of Day
15h 27m
Waxing Gibbous, 71% of the Moon is Illuminated
Jun 18
Waxing Gibbous
Jun 23
Full
Jun 29
Last Quarter
Jul 8
New
Jul 15
First Quarter

Hourly Weather History & Observations

Time (MDT) Temp. Dew Point Humidity Pressure Visibility Wind Dir Wind Speed Gust Speed Precip Events Conditions
12:53 AM 55.9 °F 39.9 °F 55% 29.86 in 10.0 mi North 3.5 mph - N/A   Clear
1:53 AM 52.0 °F 43.0 °F 71% 29.85 in 10.0 mi ENE 5.8 mph - N/A   Clear
2:53 AM 50.0 °F 42.1 °F 74% 29.84 in 10.0 mi NE 4.6 mph - N/A   Clear
3:53 AM 48.9 °F 39.9 °F 71% 29.83 in 10.0 mi Calm Calm - N/A   Clear
4:53 AM 48.0 °F 39.0 °F 71% 29.83 in 10.0 mi Calm Calm - N/A   Clear
5:53 AM 46.9 °F 37.9 °F 71% 29.84 in 10.0 mi Calm Calm - N/A   Clear
6:53 AM 48.9 °F 37.0 °F 64% 29.84 in 10.0 mi NE 3.5 mph - N/A   Clear
7:53 AM 54.0 °F 39.0 °F 57% 29.83 in 10.0 mi NE 4.6 mph - N/A   Clear
8:53 AM 62.1 °F 44.1 °F 52% 29.81 in 10.0 mi Calm Calm - N/A   Clear
9:53 AM 66.9 °F 48.9 °F 52% 29.81 in 10.0 mi Variable 4.6 mph - N/A   Clear
10:53 AM 73.9 °F 45.0 °F 35% 29.78 in 10.0 mi West 3.5 mph - N/A   Clear
11:53 AM 80.1 °F 46.0 °F 30% 29.77 in 10.0 mi SW 9.2 mph - N/A   Clear
12:53 PM 81.0 °F 43.0 °F 26% 29.75 in 10.0 mi West 8.1 mph - N/A   Clear
1:53 PM 82.9 °F 43.0 °F 24% 29.73 in 10.0 mi WSW 10.4 mph - N/A   Clear
2:53 PM 84.9 °F 39.9 °F 20% 29.70 in 10.0 mi WSW 10.4 mph - N/A   Clear
3:53 PM 87.1 °F 41.0 °F 20% 29.67 in 10.0 mi SW 10.4 mph - N/A   Clear
4:53 PM 84.9 °F 37.0 °F 18% 29.65 in 10.0 mi SW 10.4 mph - N/A   Clear
5:53 PM 82.9 °F 28.0 °F 14% 29.65 in 10.0 mi Calm Calm - N/A   Clear
6:53 PM 79.0 °F 37.9 °F 23% 29.63 in 10.0 mi East 10.4 mph 19.6 mph N/A   Clear
7:53 PM 75.9 °F 39.9 °F 27% 29.62 in 10.0 mi East 12.7 mph 20.7 mph N/A   Clear
8:53 PM 72.0 °F 39.0 °F 30% 29.60 in 10.0 mi East 8.1 mph - N/A   Clear
9:53 PM 66.0 °F 41.0 °F 40% 29.58 in 10.0 mi ENE 6.9 mph - N/A   Clear
10:53 PM 60.1 °F 41.0 °F 49% 29.57 in 10.0 mi NNW 8.1 mph - N/A   Clear
11:53 PM 59.0 °F 39.0 °F 48% 29.54 in 10.0 mi NNE 4.6 mph - N/A   Clear